EUTELSAT 48A

Last updated on Mon May 15 2017 00:17:22 GMT+0000 (Coordinated Universal Time)

1 24665U 96067A 17134.27477285 -.00000055 00000-0 00000-0 0 9990 2 24665 6.3104 55.3326 0009203 39.3710 158.9727 0.98382016 75378
UTC large
Height (km)
Speed (km/s)
/
Latitude / Longitude
Inclination (degrees)
Orbital Period (minutes)
Azimuth
Elevation
Range (km)
Doppler Factor

Next 0 passes for location: London (51.5072 / 0.1276)

Sorry there are no passes over London.